714  
ASUS41 KLWX 180312  
RWRLWX  
 
REGIONAL WEATHER ROUNDUP  
NATIONAL WEATHER SERVICE BALTIMORE MD/WASHINGTON DC  
1100 PM EDT SUN OCT 17 2021  
 
NOTE: "FAIR" INDICATES FEW OR NO CLOUDS BELOW 12,000 FEET  
WITH NO SIGNIFICANT WEATHER AND/OR S TO VISIBILITY
.  
TC=TEMPERATURE CELSIUS  
 
* =NON NWS SITE. STATION DOES NOT REPORT PRECIPITATION (E.G. RAIN,  
SNOW, ETC.), THUNDER, OR FOG.
 
 
DCZ001-MDZ009-015-VAZ040>042-051-053>054-180400-  
WASHINGTON METRO  
 
CITY SKY/WX TMP DP RH WIND PRES REMARKS
 
WASHINGTON NAT MOCLDY 55 39 54 W5 30.02R  
DULLES PTCLDY 54 38 54 W9 30.02R  
ANDREWS AFB MOCLDY 50 38 64 W3 29.99R  
FT BELVOIR PTCLDY 47 44 89 CALM 30.02R  
QUANTICO CLOUDY 52 46 80 W8 30.03S  
COLLEGE PARK* MOCLDY 53 36 51 CALM 30.00S  
LEESBURG* PTCLDY 50 43 76 NW6 30.04R  
MANASSAS* LGT RAIN 50 45 83 CALM 30.04R  
GAITHERSBURG* PTCLDY 49 39 68 W7 30.01R  
 

 
 
MDZ006>007-011-014-180400-  
BALTIMORE METRO  
 
CITY SKY/WX TMP DP RH WIND PRES REMARKS
 
BWI AIRPORT PTCLDY 52 38 58 W7 29.99R  
MARTIN STATE PTCLDY 54 41 62 W6 30.00R  
ANNAPOLIS PTCLDY 55 40 56 W3 29.99R  
ABERDEEN* PTCLDY 49 40 71 W3 29.96R  
FORT MEADE* MOCLDY 45 43 93 CALM 30.03R  
 

 
 
MDZ012-015-019>023-180400-  
MARYLAND EASTERN SHORE  
 
CITY SKY/WX TMP DP RH WIND PRES REMARKS
 
OCEAN CITY CLEAR 50 43 77 W5 29.98R  
SALISBURY CLEAR 52 43 71 W3 29.98R  
CAMBRIDGE* PTCLDY 57 39 51 W8 29.99S  
EASTON* CLEAR 57 39 52 W7 30.03R  
 

 
 
MDZ017>025-180400-  
SOUTHERN MARYLAND  
 
CITY SKY/WX TMP DP RH WIND PRES REMARKS
 
PATUXENT RIVER CLEAR 58 38 47 W9 30.01R  
ST INIGOES CLEAR 61 40 45 NW7 30.01R  
LEONARDTOWN* CLEAR 50 41 71 CALM 30.03R  
 

 
 
MDZ003>005-180400-  
NORTH CENTRAL MARYLAND  
 
CITY SKY/WX TMP DP RH WIND PRES REMARKS
 
FREDERICK* CLEAR 54 39 58 W10 30.01S  
HAGERSTOWN APT CLEAR 52 40 63 W9 30.00S  
WESTMINSTER* CLEAR 54 39 58 W7 29.98S  
 

 
 
MDZ501>502-180400-  
WESTERN MARYLAND  
 
CITY SKY/WX TMP DP RH WIND PRES REMARKS
 
OAKLAND* CLEAR 41 36 81 W10G18 30.04R WCI 35  
CUMBERLAND* CLEAR 46 41 85 CALM 30.08R  
 

 
 
VAZ025>031-180400-  
SHENANDOAH VALLEY  
 
CITY SKY/WX TMP DP RH WIND PRES REMARKS
 
WINCHESTER* CLEAR 52 39 62 W10 30.01S  
FRONT ROYAL* CLOUDY 50 43 76 MISG 30.03R  
LURAY* NOT AVBL  
NEW MARKET* PTCLDY 44 43 96 CALM 30.04R  
STAUNTON* CLEAR 42 36 79 CALM 30.07S  
WAYNESBORO* CLEAR 44 37 74 SW5 30.05S  
 

 
 
WVZ021-048>050-054>055-180400-  
EASTERN WEST VIRGINIA PANHANDLE  
 
CITY SKY/WX TMP DP RH WIND PRES REMARKS
 
MARTINSBURG CLEAR 52 38 58 CALM 30.01S  
PETERSBURG* CLEAR 56 38 49 NW6 30.05S  
 

 
 
VAZ036>039-050-180400-  
CENTRAL FOOTHILLS  
 
CITY SKY/WX TMP DP RH WIND PRES REMARKS
 
CHARLOTTESVILL CLEAR 51 38 60 VRB3 30.03S  
CULPEPER* CLOUDY 51 41 68 CALM 30.04R  
ORANGE* MOCLDY 45 41 87 W3 30.04S  
GORDONSVILLE* PTCLDY 43 43 99 CALM 30.04S  
WARRENTON* CLOUDY 48 45 91 CALM 30.03R  
 

 
 
VAZ055>057-180400-  
NORTH AND CENTRAL PIEDMONT  
 
CITY SKY/WX TMP DP RH WIND PRES REMARKS
 
FREDERICKSBRG* MOCLDY 49 44 80 CALM 30.01S  
STAFFORD* CLOUDY 49 41 74 CALM 30.07R  
 

 
 
NCZ024-NYZ072-PAZ021-071-VAZ022-071-180400-  
OTHER REGIONAL OBSERVATIONS  
 
CITY SKY/WX TMP DP RH WIND PRES REMARKS
 
NEW YORK CITY CLOUDY 54 42 64 VRB7 29.89R  
PHILADELPHIA PTCLDY 54 41 61 W9 29.94R  
PITTSBURGH MOCLDY 48 39 71 W6 30.02F  
ROANOKE CLEAR 51 36 56 W3 30.12R  
RICHMOND CLEAR 56 39 53 W8 30.05R  
RALEIGH CLEAR 54 39 57 CALM 30.13R  
 

 
 
ANZ530>537-180400-  
MARINE OBSERVATIONS  
 
STATION/POSITION TIME TEMP WIND PRES
 
AIR SEA DIR/SP/G  
(UTC) (F) (DEG/KT/KT) (MB)  
THOMAS PT LIGHT 0300 57 70 270/ 11/ 13 1016.5R  
TOLCHESTER 0230 60 67 290/ 15/ 18 1015.1R  
GOOSES REEF 0254 57 70 280/ 19/ 25 1017.1R  
COVE POINT 0230 58 260/ 14/ 17 1015.9R  
BALT HARBOR 0230 56 73 310/ 2/ 3 1014.9R  
BALT KEY BRIDGE 0230 57 280/ 11/ 13 1015.2R  
WASH DC CHANNEL 0230 57 70 340/ 2/ 3 1015.8R  
DAHLGREN 0230 54 69 250/ 5/ 5 1016.0S  
LEWISETTA 0230 58 68 290/ 9/ 11 1016.4R  
SOLOMONS ISLAND 0230 59 71 290/ 7/ 12 1015.9R  
PINEY POINT 0230 320/ 19/ 23 N/A  
POTOMAC BUOY 0248 61 70 310/ 19/ 25 1017.1R  
CAMBRIDGE PIER 0230 62 67 290/ 16/ 21 1015.1R  
BISHOPS HEAD 0230 60 60 310/ 13/ 19 1015.7R  
CHESAPEAKE CITY 0230 56 69 290/ 7/ 12 1014.5R  
 

 
 
 
 
CLICK HERE TO GO TO PREVIOUS BULLETINS.

The Nexlab VA Page
The Nexlab MD Page
The Nexlab WV Page Main Text Page